TimeCST,TemperatureF,Dew PointF,Humidity,Sea Level PressureIn,VisibilityMPH,Wind Direction,Wind SpeedMPH,Gust SpeedMPH,PrecipitationIn,Events,Conditions,WindDirDegrees,DateUTC
12:53 AM,34.0,28.9,82,30.29,10.0,Calm,Calm,-,N/A,,Clear,0,2013-12-18 06:53:00
1:53 AM,36.0,30.0,79,30.28,10.0,Calm,Calm,-,N/A,,Clear,0,2013-12-18 07:53:00
2:53 AM,34.0,28.9,82,30.27,10.0,ENE,4.6,-,N/A,,Clear,70,2013-12-18 08:53:00
3:53 AM,35.1,28.9,78,30.27,10.0,NE,3.5,-,N/A,,Clear,50,2013-12-18 09:53:00
4:53 AM,34.0,28.9,82,30.26,10.0,NE,5.8,-,N/A,,Clear,50,2013-12-18 10:53:00
5:53 AM,34.0,28.9,82,30.27,10.0,ENE,4.6,-,N/A,,Clear,70,2013-12-18 11:53:00
6:53 AM,33.1,28.0,82,30.27,10.0,ENE,6.9,-,N/A,,Clear,60,2013-12-18 12:53:00
7:53 AM,34.0,28.9,82,30.28,10.0,ENE,5.8,-,N/A,,Clear,60,2013-12-18 13:53:00
8:53 AM,39.9,32.0,73,30.27,10.0,East,6.9,-,N/A,,Clear,80,2013-12-18 14:53:00
9:53 AM,46.0,32.0,58,30.27,10.0,ENE,9.2,-,N/A,,Clear,60,2013-12-18 15:53:00
10:53 AM,52.0,34.0,50,30.25,10.0,NE,8.1,-,N/A,,Clear,40,2013-12-18 16:53:00
11:53 AM,55.9,37.0,49,30.20,10.0,NE,9.2,-,N/A,,Clear,40,2013-12-18 17:53:00
12:53 PM,59.0,37.9,46,30.15,10.0,ENE,9.2,-,N/A,,Clear,60,2013-12-18 18:53:00
1:53 PM,64.9,39.0,39,30.09,10.0,Calm,Calm,-,N/A,,Clear,0,2013-12-18 19:53:00
2:24 PM,68.0,35.6,30,30.07,10.0,SW,16.1,23.0,N/A,,Clear,220,2013-12-18 20:24:00
2:53 PM,66.9,35.1,31,30.06,10.0,South,12.7,-,N/A,,Clear,190,2013-12-18 20:53:00
3:53 PM,66.9,36.0,32,30.05,10.0,South,9.2,-,N/A,,Clear,190,2013-12-18 21:53:00
4:53 PM,63.0,36.0,37,30.04,10.0,South,8.1,-,N/A,,Clear,190,2013-12-18 22:53:00
5:53 PM,57.9,36.0,44,30.04,10.0,South,3.5,-,N/A,,Clear,180,2013-12-18 23:53:00
6:53 PM,57.0,37.0,47,30.04,10.0,SE,5.8,-,N/A,,Clear,140,2013-12-19 00:53:00
7:53 PM,53.1,37.0,55,30.03,10.0,Calm,Calm,-,N/A,,Clear,0,2013-12-19 01:53:00
8:53 PM,55.9,39.0,53,30.02,10.0,East,5.8,-,N/A,,Clear,100,2013-12-19 02:53:00
9:53 PM,50.0,37.9,63,30.01,10.0,Calm,Calm,-,N/A,,Clear,0,2013-12-19 03:53:00
10:53 PM,44.1,37.0,76,30.02,10.0,NNE,3.5,-,N/A,,Clear,20,2013-12-19 04:53:00
11:53 PM,46.0,37.9,73,30.01,10.0,Calm,Calm,-,N/A,,Clear,0,2013-12-19 05:53:00